ONEWEB-0250 (48968 NORAD) Tracking and Keplerian Element Data

This shows tracking and keplerian element data for the satellite.

Feedback or suggestion? Click here.




ElementValue
Catalog48968
NameONEWEB-0250
Epoch Orbit1388
Epoch Day269.25001157
Epoch Year2021
RAAN211.8869
Inclination87.9309
Eccentricity0.0007167
Argument of Perigee345.9463
Mean Anonmoly80.7373
Mean Motion13.42976224
Decay Rate1.4E-07
L11 48968U 21060B 21269.25001157 .00000014 00000-0 00000+0 0 9999
L22 48968 87.9309 211.8869 0007167 345.9463 80.7373 13.42976224 13881

Live tracking and technical data element details for ONEWEB-0250 (NORAD 48968). ONEWEB-0250 can be tracked NOW for your location showing map with azimuth and elevation plus other details from your city location.

Track the satellite on the map from your city or location and see movement details for azimuth, elevation, latitude, longitude, range, height, and movement on the map or in text.







IsCatalogInMostPopularTable: catalog: 48968, numindb: 19
Update: records affected: 1



GetName: 48968 ONEWEB-0250

Hit Count: updated at: Sun, 26 Sep 2021 14:56:52 GMT